DHHSH ZZZZ-EDXW

Flight info

Callsign DHHSH
Flight time N/A
Altitude 3000
Route 5431N00744E DCT KUSHA ODLIP
Aircraft A139/L-DFGHILOY/C

Departure

Time N/A
Airport ZZZZ

Arrival

Time 2026-04-26 06:35
Airport Westerland Sylt Airport (EDXW)
Time Latitude Longitude Altitude Speed Heading
2026-04-26 06:02 54.52016 7.73506 128 ft 0 kts
2026-04-26 06:10 54.52121 7.73522 251 ft 39 kts
2026-04-26 06:10 54.52365 7.73731 696 ft 46 kts 22°
2026-04-26 06:11 54.52685 7.73707 1122 ft 57 kts
2026-04-26 06:11 54.53092 7.73667 1583 ft 62 kts
2026-04-26 06:11 54.53493 7.73702 1977 ft 57 kts
2026-04-26 06:11 54.53885 7.73734 2236 ft 57 kts
2026-04-26 06:12 54.54282 7.73937 2475 ft 70 kts 27°
2026-04-26 06:12 54.54843 7.74362 2732 ft 110 kts 28°
2026-04-26 06:12 54.55638 7.74993 3046 ft 134 kts 22°
2026-04-26 06:12 54.56471 7.75624 3065 ft 137 kts 17°
2026-04-26 06:13 54.57361 7.76245 3042 ft 137 kts 16°
2026-04-26 06:13 54.58235 7.76868 3022 ft 137 kts 17°
2026-04-26 06:13 54.59109 7.77496 3018 ft 135 kts 20°
2026-04-26 06:13 54.59966 7.78127 3010 ft 135 kts 21°
2026-04-26 06:14 54.60823 7.78773 3002 ft 134 kts 21°
2026-04-26 06:14 54.61683 7.79418 2982 ft 136 kts 21°
2026-04-26 06:14 54.62552 7.80067 2987 ft 136 kts 21°
2026-04-26 06:14 54.63413 7.80709 2993 ft 136 kts 21°
2026-04-26 06:15 54.64280 7.81356 2987 ft 137 kts 21°
2026-04-26 06:15 54.65147 7.82003 2997 ft 137 kts 21°
2026-04-26 06:15 54.66007 7.82645 3002 ft 137 kts 21°
2026-04-26 06:15 54.66850 7.83274 3005 ft 136 kts 21°
2026-04-26 06:16 54.67714 7.83918 3005 ft 136 kts 21°
2026-04-26 06:16 54.68556 7.84633 2967 ft 138 kts 35°
2026-04-26 06:16 54.69002 7.86075 2982 ft 141 kts 78°
2026-04-26 06:16 54.68955 7.87691 3031 ft 139 kts 91°
2026-04-26 06:17 54.68852 7.89241 3006 ft 139 kts 92°
2026-04-26 06:17 54.68733 7.90805 2986 ft 140 kts 93°
2026-04-26 06:17 54.68600 7.92457 2983 ft 140 kts 94°
2026-04-26 06:17 54.68462 7.94126 2986 ft 140 kts 94°
2026-04-26 06:18 54.68360 7.95771 2992 ft 139 kts 85°
2026-04-26 06:18 54.68398 7.97415 2992 ft 139 kts 83°
2026-04-26 06:18 54.68462 7.99091 2991 ft 140 kts 82°
2026-04-26 06:18 54.68534 8.00744 2995 ft 139 kts 81°
2026-04-26 06:19 54.68610 8.02406 2996 ft 139 kts 81°
2026-04-26 06:19 54.68688 8.04063 2994 ft 139 kts 81°
2026-04-26 06:19 54.68767 8.05726 2994 ft 139 kts 81°
2026-04-26 06:19 54.68847 8.07391 2991 ft 140 kts 82°
2026-04-26 06:20 54.68926 8.09067 2998 ft 140 kts 81°
2026-04-26 06:20 54.69004 8.10732 3000 ft 139 kts 81°
2026-04-26 06:20 54.69085 8.12411 2997 ft 139 kts 81°
2026-04-26 06:20 54.69190 8.14631 3000 ft 139 kts 81°
2026-04-26 06:21 54.69241 8.15719 3000 ft 139 kts 81°
2026-04-26 06:21 54.69321 8.17384 2992 ft 139 kts 81°
2026-04-26 06:21 54.69397 8.19027 2998 ft 139 kts 81°
2026-04-26 06:21 54.69476 8.20708 2998 ft 139 kts 82°
2026-04-26 06:22 54.69546 8.22224 3004 ft 139 kts 82°
2026-04-26 06:22 54.69623 8.23887 3009 ft 139 kts 81°
2026-04-26 06:22 54.69699 8.25521 3003 ft 140 kts 82°
2026-04-26 06:22 54.69775 8.27181 3008 ft 140 kts 81°
2026-04-26 06:23 54.69846 8.28721 3011 ft 140 kts 81°
2026-04-26 06:23 54.69922 8.30367 3017 ft 140 kts 81°
2026-04-26 06:23 54.69999 8.32039 3020 ft 140 kts 81°
2026-04-26 06:23 54.70068 8.33536 3018 ft 140 kts 81°
2026-04-26 06:24 54.70142 8.35175 3014 ft 140 kts 81°
2026-04-26 06:24 54.70215 8.36776 3017 ft 139 kts 81°
2026-04-26 06:24 54.70290 8.38424 3017 ft 139 kts 81°
2026-04-26 06:24 54.70363 8.40026 3007 ft 139 kts 81°
2026-04-26 06:25 54.70436 8.41641 3012 ft 139 kts 81°
2026-04-26 06:25 54.70510 8.43308 3017 ft 139 kts 81°
2026-04-26 06:25 54.70584 8.44968 3011 ft 139 kts 81°
2026-04-26 06:25 54.70658 8.46613 3006 ft 139 kts 81°
2026-04-26 06:26 54.70734 8.48273 3011 ft 139 kts 81°
2026-04-26 06:26 54.70810 8.49938 3019 ft 138 kts 81°
2026-04-26 06:26 54.70869 8.51542 3003 ft 127 kts 81°
2026-04-26 06:26 54.70908 8.53007 2949 ft 120 kts 81°
2026-04-26 06:27 54.70962 8.54418 2932 ft 119 kts 81°
2026-04-26 06:27 54.71027 8.55837 2958 ft 119 kts 81°
2026-04-26 06:27 54.71089 8.57151 2985 ft 118 kts 80°
2026-04-26 06:27 54.71442 8.58288 2993 ft 117 kts 39°
2026-04-26 06:28 54.72179 8.58654 2990 ft 119 kts 354°
2026-04-26 06:28 54.72866 8.57981 2988 ft 123 kts 311°
2026-04-26 06:28 54.73422 8.56846 3003 ft 123 kts 311°
2026-04-26 06:28 54.74017 8.55796 3014 ft 122 kts 315°
2026-04-26 06:29 54.74587 8.54893 3010 ft 121 kts 320°
2026-04-26 06:29 54.75235 8.53969 3000 ft 121 kts 322°
2026-04-26 06:29 54.75897 8.53078 2995 ft 121 kts 323°
2026-04-26 06:29 54.76566 8.52215 2991 ft 121 kts 324°
2026-04-26 06:30 54.77204 8.51407 2992 ft 121 kts 324°
2026-04-26 06:30 54.77880 8.50562 2991 ft 120 kts 325°
2026-04-26 06:30 54.78561 8.49722 2938 ft 121 kts 324°
2026-04-26 06:30 54.79249 8.48872 2791 ft 121 kts 324°
2026-04-26 06:31 54.79932 8.48025 2633 ft 122 kts 324°
2026-04-26 06:31 54.80594 8.47220 2477 ft 122 kts 321°
2026-04-26 06:31 54.81271 8.46379 2313 ft 122 kts 321°
2026-04-26 06:31 54.81961 8.45528 2144 ft 121 kts 322°
2026-04-26 06:32 54.82617 8.44721 1981 ft 121 kts 322°
2026-04-26 06:32 54.83247 8.43948 1824 ft 121 kts 322°
2026-04-26 06:32 54.83843 8.43217 1680 ft 120 kts 323°
2026-04-26 06:32 54.84446 8.42468 1527 ft 118 kts 328°
2026-04-26 06:33 54.85102 8.41682 1363 ft 118 kts 328°
2026-04-26 06:33 54.85764 8.40880 1200 ft 117 kts 327°
2026-04-26 06:33 54.86415 8.40086 1052 ft 107 kts 325°
2026-04-26 06:33 54.86946 8.39424 916 ft 83 kts 324°
2026-04-26 06:34 54.87386 8.38866 791 ft 76 kts 328°
2026-04-26 06:34 54.87819 8.38342 688 ft 76 kts 330°
2026-04-26 06:34 54.88254 8.37817 587 ft 76 kts 329°
2026-04-26 06:34 54.88683 8.37291 485 ft 75 kts 329°
2026-04-26 06:35 54.89111 8.36764 382 ft 75 kts 329°
2026-04-26 06:35 54.89673 8.36069 251 ft 70 kts 326°
2026-04-26 06:35 54.89912 8.35776 193 ft 55 kts 329°
2026-04-26 06:35 54.90168 8.35468 135 ft 38 kts 325°
2026-04-26 06:36 54.90368 8.35223 93 ft 33 kts 327°
2026-04-26 06:36 54.90576 8.34965 100 ft 42 kts 326°
2026-04-26 06:36 54.90831 8.34651 91 ft 42 kts 327°
2026-04-26 06:36 54.91052 8.34375 87 ft 37 kts 331°
2026-04-26 06:37 54.91266 8.34113 85 ft 39 kts 327°
2026-04-26 06:37 54.91472 8.33856 62 ft 27 kts 326°
2026-04-26 06:37 54.91588 8.33711 45 ft 16 kts 329°
2026-04-26 06:37 54.91665 8.33617 46 ft 12 kts 330°
2026-04-26 06:38 54.91752 8.33509 55 ft 18 kts 333°
2026-04-26 06:38 54.91869 8.33388 60 ft 17 kts
2026-04-26 06:38 54.91938 8.33401 46 ft 6 kts 65°
2026-04-26 06:38 54.91954 8.33484 42 ft 9 kts 85°
2026-04-26 06:39 54.91963 8.33610 41 ft 9 kts 65°
2026-04-26 06:39 54.91972 8.33649 37 ft 1 kts 64°
2026-04-26 06:39 54.91985 8.33693 38 ft 4 kts 64°
2026-04-26 06:39 54.91998 8.33737 38 ft 2 kts 61°
2026-04-26 06:40 54.92013 8.33746 38 ft 2 kts 346°
2026-04-26 06:40 54.92038 8.33735 38 ft 3 kts
2026-04-26 06:40 54.92052 8.33752 38 ft 2 kts 120°
2026-04-26 06:40 54.92049 8.33756 38 ft 0 kts 85°
2026-04-26 06:41 54.92048 8.33742 38 ft 0 kts 83°
2026-04-26 06:41 54.92048 8.33748 38 ft 0 kts 85°